Other Surface Observations
Issued by NWS Charleston, SC

Home | Current Version | Previous Version | Text Only | Print | Product List | Glossary On
Versions: 1 2 3 4 5 6 7 8 9 10 11 12 13 14 15 16 17 18 19 20 21 22 23 24 25 26 27 28 29 30 31 32 33 34 35 36 37 38 39 40 41 42 43 44 45 46 47 48 49 50
000
SXUS52 KCHS 230627
OSOCHS

Marine Observations
National Weather Service Charleston SC
100 AM EST TUE JAN 23 2018

...Downtown Charleston and Harbor...

CITY           SKY/WX    TMP DP  RH WIND       PRES   REMARKS
Waterfront Prk NOT AVBL

...Lake Moultrie...

CITY           SKY/WX    TMP DP  RH WIND       PRES   REMARKS
Pinopolis        N/A     63  63 100 VRB2      29.88F

...Lake and Supplemental Coastal Observations...

STATION/POSITION TIME  TEMP    WIND        PRES    WAVE   SWELL
                       AIR SEA DIR/SP/G            HT/PER HT/PER/DIR
                 (UTC) (F)     (DEG/KT/KT) (MB)    (FT/S) (FT/S/D)
Fort Pulaski     0600   61 47  200/  6/ 10 1015.3
Sapelo Island    0600   61     200/ 13     1016.0
Winyah Bay       0545   57     170/  3     1016.0F
Lake Murray      0620   61     180/ 18/ 22 1010.8
ACE Basin NERRS  0545   58     150/  1     1015.0F


...C-MAN and Buoy Observations...

STATION/POSITION TIME  TEMP    WIND        PRES    WAVE   SWELL
                       AIR SEA DIR/SP/G            HT/PER HT/PER/DIR
                 (UTC) (F)     (DEG/KT/KT) (MB)    (FT/S) (FT/S/D)
Buoy 41004       0610   71 70  170/ 19/ 21 1015.4
Buoy 41008       0550   58 52  160/ 14/ 16 1015.0F   2/ 5   2/100/10
Folly Beach CMAN 0600   57     170/ 12/ 13 1015.5F
Capers NS Buoy   0608   56 52  180/ 12/ 16 1014.6F
Fripp NS Buoy    0608   53 48  180/ 10/ 14 1014.6F
5E St. Marys GA  0600      50                N/A     3/ 5


STATION/POSITION TIME  TEMP    WIND        PRES    WAVE   SWELL
                       AIR SEA DIR/SP/G            HT/PER HT/PER/DIR
                 (UTC) (F)     (DEG/KT/KT) (MB)    (FT/S) (FT/S/D)
Frying Pan Buoy  0610   70 67  190/ 19/ 25 1016.3
Buoy 41025       0610   70 69  180/ 23/ 29 1017.5
Cape Lookout NC  0600          190/ 11/ 12 1017.1F
Buoy 41002       0550   69 70  140/ 16/ 19 1020.2F   3/ 5   2/100/ 9
Buoy 41010       NOT AVBL
St Augustine FL  0600   67 53  220/  6/  8 1017.2R

$$




USA.gov is the U.S. government's official web portal to all federal, state and local government web resources and services.